Flag for Canada Weather past 2 weeks in Longueuil, Quebec, Canada

Now
31 °F

Chilly.


Feels Like: 28 °F
Forecast: 27 / 45 °F
Wind: 3 mph from South

Location: Mc Tavish


UV Index: 5 (Moderate)

Visibility: N/A


Pressure: 30.79 "Hg

Humidity: 59%

Dew point: 19 °F

Location of LongueuilLocation

Historic Weather in Longueuil

°F

Longueuil temperature yesterday

Maximum temperature yesterday: 32 °F (at 6:00 PM)
Minimum temperature yesterday: 20 °F (at 9:00 AM)
Average temperature yesterday: 27 °F

Past Weeks' High & Low Weather Summary

 TemperatureHumidityPressure
High75 °F (Apr 14, 4:00 PM)98% (Apr 14, 3:00 AM)30.79 "Hg (Apr 14, 3:00 AM)
Low20 °F (Apr 16, 9:00 AM)29% (Apr 9, 6:00 PM)29.21 "Hg (Apr 8, 1:00 PM)
Average40 °F63%29.93 "Hg
* Reported Apr 2 9:00 AM — Apr 17 9:00 AM, Longueuil, Weather by CustomWeather, © 2014

Note: Actual official high and low records may vary slightly from our data, if they occured in-between our weather recording intervals... More about our weather records

Advertising

Historic Weather Conditions — Data for Previous 24 hours

 ConditionsComfort  
Time TempWeatherWind HumidityBarometerVisibility
9:00 AM
Apr 17
31 °FChilly.3 mph59%30.79 "HgN/A
8:00 AM30 °FChilly.5 mph64%30.77 "HgN/A
7:00 AM29 °FChilly.2 mph61%30.76 "HgN/A
6:00 AM29 °FChilly.3 mph66%30.74 "HgN/A
5:00 AM29 °FChilly.3 mph59%30.71 "HgN/A
4:00 AM29 °FChilly.2 mph65%30.71 "HgN/A
3:00 AM29 °FChilly.2 mph57%30.69 "HgN/A
2:00 AM29 °FChilly.2 mph54%30.68 "HgN/A
1:00 AM30 °FChilly.2 mph53%30.66 "HgN/A
11:00 PM
Apr 16
29 °FChilly.1 mph53%30.62 "HgN/A
10:00 PM29 °FChilly.1 mph52%30.60 "HgN/A
9:00 PM31 °FChilly.2 mph43%30.58 "HgN/A
8:00 PM31 °FChilly.2 mph41%30.55 "HgN/A
6:00 PM32 °FChilly.3 mph38%N/AN/A
5:00 PM32 °FChilly.5 mph41%30.49 "HgN/A
4:00 PM30 °FChilly.7 mph39%30.49 "HgN/A
2:00 PM28 °FChilly.5 mph40%30.46 "HgN/A
1:00 PM28 °FChilly.8 mph46%30.45 "HgN/A
11:00 AM24 °FCold.5 mph42%30.41 "HgN/A
10:00 AM21 °FCold.10 mph48%30.38 "HgN/A
Weather by CustomWeather, © 2014

See weather overview